PROBA-1 1 26958U 01049B 26236.96265366 .00001497 00000+0 99588-4 0 9999 2 26958 97.9628 247.9162 0053127 249.9246 109.6258 15.07749942353985 CUTE-1 (CO-55) 1 27844U 03031E 26236.45778142 .00000230 00000+0 11830-3 0 9999 2 27844 98.6766 244.1664 0009391 355.0395 5.0690 14.24371208201395 CUBESAT XI-IV (CO-57) 1 27848U 03031J 26236.48062759 .00000185 00000+0 10026-3 0 9991 2 27848 98.6796 243.8465 0009714 13.6367 346.5072 14.23651376201092 APRIZESAT 4 1 35684U 09041D 26236.63112557 .00000613 00000+0 79393-4 0 9993 2 35684 98.1370 313.3019 0044599 99.3976 261.2283 14.83965176921512 APRIZESAT 3 1 35686U 09041F 26236.70906597 .00001755 00000+0 15508-3 0 9993 2 35686 98.2149 33.2616 0061142 199.6430 160.2435 14.96392192926622 PROBA-2 1 36037U 09059B 26236.32773603 .00000137 00000+0 42518-4 0 9996 2 36037 98.2478 58.7491 0014476 72.1374 288.1400 14.54887144891433 APRIZESAT 5 1 37792U 11044E 26235.76666878 .00000641 00000+0 87847-4 0 9998 2 37792 98.2455 170.7293 0052826 143.8133 216.6671 14.81176566808794 APRIZESAT 6 1 37793U 11044F 26236.58302262 .00000474 00000+0 74329-4 0 9999 2 37793 98.2296 148.4619 0041943 225.8637 256.3098 14.77001560807249 PROBA-V 1 39159U 13021A 26235.87329382 .00000050 00000+0 39800-4 0 9992 2 39159 98.3662 211.1615 0003121 306.4173 53.6718 14.23609402690748 APRIZESAT 7 1 39416U 13066A 26236.30931391 .00001044 00000+0 10828-3 0 9997 2 39416 97.7762 188.5737 0035448 348.1139 11.9239 14.91703751691385 APRIZESAT 8 1 39425U 13066K 26236.81300745 .00000927 00000+0 10571-3 0 9990 2 39425 97.8261 183.3411 0047197 60.9773 299.6160 14.87756074689879 BUGSAT-1 (TITA) 1 40014U 14033E 26236.94821762 .00004629 00000+0 24154-3 0 9997 2 40014 98.0423 333.5497 0026405 307.6303 52.2532 15.16204568666252 SAUDISAT 4 1 40016U 14033G 26236.82878352 .00000593 00000+0 84783-4 0 9994 2 40016 97.7678 20.6313 0044039 208.3564 151.5251 14.79614740656224 APRIZESAT 9 1 40018U 14033J 26236.35098638 .00000353 00000+0 59368-4 0 9990 2 40018 97.9149 7.9189 0065561 342.3835 17.5100 14.74288527653601 APRIZESAT 10 1 40019U 14033K 26235.94866872 .00000365 00000+0 64846-4 0 9998 2 40019 97.9728 1.4263 0079864 58.0218 302.8720 14.70950865652215 TECHDEMOSAT-1 (TDS-1) 1 40076U 14037H 26236.44201763 .00006240 00000+0 34621-3 0 9998 2 40076 98.3859 235.4859 0007398 49.4555 310.7317 15.14158470658553 TECHNOSAT 1 42829U 17042E 26236.85770208 .00003282 00000+0 23298-3 0 9996 2 42829 97.4357 31.9531 0016752 216.1981 143.8114 15.05290269497037 FLYING LAPTOP 1 42831U 17042G 26236.96719726 .00002653 00000+0 20906-3 0 9993 2 42831 97.4957 29.9997 0016121 254.3835 105.5610 15.01505360496774 HAWK-A 1 43765U 18099H 26236.12773748 .00005910 00000+0 23262-3 0 9992 2 43765 97.3862 287.4904 0035332 48.3849 312.0407 15.25424634423459 HAWK-B 1 43794U 18099AN 26236.62612607 .00005845 00000+0 24400-3 0 9997 2 43794 97.3912 287.2509 0033023 64.7749 295.6906 15.23531678423457 HAWK-C 1 43799U 18099AT 26236.14326133 .00007555 00000+0 26387-3 0 9991 2 43799 97.3839 288.7605 0040705 46.6766 313.7855 15.29060391424299 SALSAT 1 46495U 20068K 26235.95590157 .00006873 00000+0 23443-3 0 9995 2 46495 97.8879 243.2009 0011187 69.3904 290.8534 15.30648655325720 HAWK-2C 1 47502U 21006CT 26236.59850837 .00005520 00000+0 16278-3 0 9999 2 47502 97.2238 279.5593 0005514 329.3208 30.7713 15.35398802309998 HAWK-2A 1 47505U 21006CW 26236.86013453 .00004867 00000+0 14354-3 0 9993 2 47505 97.2280 280.5357 0005080 334.7680 25.3315 15.35458816310037 HAWK-2B 1 47508U 21006CZ 26236.85029542 .00006052 00000+0 17707-3 0 9994 2 47508 97.2148 278.7508 0005422 330.8273 29.2668 15.35601910310034 HAWK-3B 1 48931U 21059BE 26235.08427045 .00051215 00000+0 34219-3 0 9995 2 48931 97.6598 78.3978 0005311 83.0373 277.1496 15.75173347288363 HAWK-3C 1 48948U 21059BX 26236.03681482 .00053771 00000+0 35752-3 0 9998 2 48948 97.6701 85.2464 0005728 79.7208 280.4701 15.75272502288511 HAWK-3A 1 48957U 21059CG 26235.84611520 .00050647 00000+0 33741-3 0 9997 2 48957 97.6655 82.1875 0005554 82.0301 278.1594 15.75241370288488 HAWK-5C 1 52754U 22057Y 26236.88085204 .00017763 00000+0 28036-3 0 9998 2 52754 97.6653 41.1264 0004110 161.9980 198.1419 15.53576481237009 HAWK-5B 1 52756U 22057AA 26236.88068747 .00017499 00000+0 27619-3 0 9995 2 52756 97.6668 39.4871 0004957 158.6450 201.5010 15.53576622237008 HAWK-5A 1 52757U 22057AB 26236.42959729 .00017578 00000+0 27761-3 0 9991 2 52757 97.6665 39.8331 0004808 162.9889 197.1526 15.53558628236939 HAWK-6B 1 55324U 23011A 26236.89476474 .00005310 00000+0 22609-3 0 9994 2 55324 40.4999 311.1571 0002467 202.0508 158.0195 15.23456654198324 HAWK-6C 1 55326U 23011C 26236.56635524 .00003753 00000+0 16223-3 0 9997 2 55326 40.4990 309.9068 0002499 178.2284 181.8535 15.23447298198284 HAWK-6A 1 55327U 23011D 26236.56638734 .00003912 00000+0 16875-3 0 9994 2 55327 40.5001 311.5369 0002195 179.4228 180.6584 15.23449699198284 HAWK-7A 1 56191U 23054P 26236.55876150 .00004901 00000+0 18216-3 0 9996 2 56191 97.2594 122.1500 0004091 128.0196 232.1413 15.27982687187469 HAWK-7B 1 56193U 23054R 26236.62418566 .00004972 00000+0 18478-3 0 9997 2 56193 97.2619 120.5014 0003003 127.8944 232.2568 15.27983237187476 HAWK-7C 1 56200U 23054Y 26236.49308011 .00004900 00000+0 18214-3 0 9993 2 56200 97.2598 121.1212 0003540 123.1920 236.9660 15.27980918187452